Simultaneous Nadir Overpasses (SNOs) Predictions

Prediction of SNOs between LANDSAT-8 and METOP-B Satellite Orbit:

Table of predicted SNOs for the next 14.0 days since TLE Epoch: 11/4/2014
Index Date (LANDSAT-8) Time (LANDSAT-8) Lat,Lon (LANDSAT-8) SZA (LANDSAT-8 ) Date (METOP-B) Time (METOP-B) Lat,Lon (METOP-B) SZA (METOP-B ) Distance(km) Time Diff (sec)
1 11/06/2014 01:08:32 -81.05, 21.55 80.79 11/06/2014 01:07:33 -81.04, 21.48 80.83 1.22 59
2 11/06/2014 01:57:57 81.07,-170.38 99.29 11/06/2014 01:58:12 81.07,-170.43 99.29 0.98 15
3 11/08/2014 20:42:47 -81.05, 88.10 79.95 11/08/2014 20:41:58 -81.05, 88.05 79.98 1.08 49
4 11/08/2014 21:32:12 81.08,-103.85 100.12 11/08/2014 21:32:37 81.07,-103.90 100.12 1.18 25
5 11/11/2014 16:17:03 -81.05, 154.52 79.18 11/11/2014 16:16:24 -81.05, 154.57 79.19 0.97 39
6
